CW8284 Weather Reports


Display with metric or nautical units.
time (UTC)temp
F
wind
direction
speed
MPH
gust
MPH
rain 1hr
in
rain 24hr
in
rain mn
in
humidity
%
barometer
mb
20260902041019 69 202 2.0 3.0 0.00 0.00 0.00 1013.0
20260902040619 69 225 2.0 4.0 0.00 0.00 0.00 1013.1
20260902040219 69 202 0.0 0.0 0.00 0.00 0.00 1013.0
20260902040119 69 157 1.0 3.0 0.00 0.00 0.00 1012.9
20260902035718 69 225 1.0 2.0 0.00 0.00 0.00 1012.9
20260902034719 70 180 1.0 2.0 0.00 0.00 0.00 1012.6
20260902034619 70 225 2.0 3.0 0.00 0.00 0.00 1012.5
20260902034519 70 225 2.0 4.0 0.00 0.00 0.00 1012.5
20260902034419 70 180 2.0 4.0 0.00 0.00 0.00 1012.4
20260902034318 70 202 2.0 3.0 0.00 0.00 0.00 1012.6
20260902034218 70 157 1.0 2.0 0.00 0.00 0.00 1012.4
20260902032919 70 225 1.0 3.0 0.00 0.00 0.00 1012.3
20260902032218 71 202 0.0 2.0 0.00 0.00 0.00 1012.3
20260902032119 71 225 2.0 3.0 0.00 0.00 0.00 1012.3
20260902030819 72 202 1.0 2.0 0.00 0.00 0.00 1012.3
20260902030419 72 180 0.0 2.0 0.00 0.00 0.00 1012.2
20260902030019 72 202 0.0 2.0 0.00 0.00 0.00 1012.1
20260902024418 73 225 1.0 2.0 0.00 0.00 0.00 1011.9
20260902023118 74 180 0.0 1.0 0.00 0.00 0.00 1011.7
20260902021518 75 202 2.0 4.0 0.00 0.00 0.00 1011.7
20260902021418 75 292 1.0 4.0 0.00 0.00 0.00 1011.6
20260902021319 75 225 3.0 4.0 0.00 0.00 0.00 1011.6
20260902020918 75 225 2.0 3.0 0.00 0.00 0.00 1011.6
20260902020219 76 202 0.0 0.0 0.00 0.00 0.00 1011.6
20260902014319 77 202 4.0 5.0 0.00 0.00 0.00 1011.9
20260902013918 77 225 3.0 6.0 0.00 0.00 0.00 1011.7
20260902013819 77 135 3.0 8.0 0.00 0.00 0.00 1011.7
20260902013418 78 225 4.0 7.0 0.00 0.00 0.00 1011.7
20260902013318 78 202 5.0 7.0 0.00 0.00 0.00 1011.8
20260902012919 78 225 3.0 7.0 0.00 0.00 0.00 1012.0
20260902012518 78 225 2.0 3.0 0.00 0.00 0.00 1011.9
20260902012419 78 202 2.0 3.0 0.00 0.00 0.00 1011.9
20260902012319 79 180 2.0 3.0 0.00 0.00 0.00 1011.9
20260902012219 79 225 1.0 3.0 0.00 0.00 0.00 1011.8
20260902010919 80 157 2.0 4.0 0.00 0.00 0.00 1011.9
20260902010219 80 180 5.0 7.0 0.00 0.00 0.00 1012.0
20260902005519 80 180 1.0 2.0 0.00 0.00 0.00 1011.9
20260902005419 80 225 2.0 2.0 0.00 0.00 0.00 1011.9
20260902005019 80 157 3.0 9.0 0.00 0.00 0.00 1011.9
20260902004018 81 180 4.0 6.0 0.00 0.00 0.00 1011.9
20260902003919 81 180 5.0 7.0 0.00 0.00 0.00 1011.9
20260902003819 81 202 2.0 4.0 0.00 0.00 0.00 1011.9
20260902003719 81 157 1.0 2.0 0.00 0.00 0.00 1011.9
20260902003019 81 180 1.0 2.0 0.00 0.00 0.00 1011.9
20260902002618 82 225 2.0 2.0 0.00 0.00 0.00 1012.0
20260902002218 82 157 1.0 2.0 0.00 0.00 0.00 1011.7
20260902001219 82 270 3.0 4.0 0.00 0.00 0.00 1011.7
20260902001118 82 225 3.0 5.0 0.00 0.00 0.00 1012.0
20260902000419 83 202 6.0 9.0 0.00 0.00 0.00 1011.9
20260901235118 83 180 5.0 7.0 0.00 0.00 0.00 1011.8
20260901234719 84 202 6.0 9.0 0.00 0.00 0.00 1012.0
20260901234318 84 225 7.0 9.0 0.00 0.00 0.00 1011.9
20260901233318 85 157 2.0 3.0 0.00 0.00 0.00 1012.0
20260901232619 85 157 4.0 6.0 0.00 0.00 0.00 1012.1
20260901231919 85 247 4.0 7.0 0.00 0.00 0.00 1011.8
20260901231819 86 157 6.0 9.0 0.00 0.00 0.00 1011.9
20260901231719 86 225 8.0 11.0 0.00 0.00 0.00 1012.1
20260901231319 86 225 4.0 6.0 0.00 0.00 0.00 1011.9
20260901231219 86 315 5.0 9.0 0.00 0.00 0.00 1011.9
20260901230819 87 225 5.0 8.0 0.00 0.00 0.00 1011.9
20260901230719 87 202 4.0 8.0 0.00 0.00 0.00 1011.9
20260901230619 87 225 4.0 7.0 0.00 0.00 0.00 1011.9
20260901225619 90 180 3.0 6.0 0.00 0.00 0.00 1012.1
20260901225518 90 202 3.0 6.0 0.00 0.00 0.00 1012.0
20260901224518 93 315 3.0 6.0 0.00 0.00 0.00 1011.9
20260901224418 93 202 2.0 2.0 0.00 0.00 0.00 1012.0
20260901224319 93 112 3.0 6.0 0.00 0.00 0.00 1011.9
20260901224219 93 225 4.0 7.0 0.00 0.00 0.00 1012.0
20260901224119 93 247 6.0 10.0 0.00 0.00 0.00 1012.0
20260901224019 93 247 2.0 6.0 0.00 0.00 0.00 1011.9
20260901221519 93 225 5.0 8.0 0.00 0.00 0.00 1012.1
20260901221418 93 180 3.0 4.0 0.00 0.00 0.00 1011.8
20260901220719 93 225 4.0 7.0 0.00 0.00 0.00 1012.0
20260901220319 94 180 3.0 7.0 0.00 0.00 0.00 1012.0
20260901220219 93 225 3.0 9.0 0.00 0.00 0.00 1012.0
20260901215819 93 202 2.0 5.0 0.00 0.00 0.00 1012.1
20260901215418 93 315 2.0 4.0 0.00 0.00 0.00 1012.1
20260901215319 93 157 1.0 2.0 0.00 0.00 0.00 1012.1
20260901214919 93 225 5.0 8.0 0.00 0.00 0.00 1012.2
20260901214819 93 225 1.0 4.0 0.00 0.00 0.00 1012.1
20260901214418 93 247 1.0 4.0 0.00 0.00 0.00 1012.1
20260901214319 93 202 6.0 10.0 0.00 0.00 0.00 1012.2
20260901213318 93 180 6.0 12.0 0.00 0.00 0.00 1012.3
20260901212919 93 180 2.0 2.0 0.00 0.00 0.00 1012.3
20260901212519 94 225 4.0 8.0 0.00 0.00 0.00 1012.4
20260901212419 93 135 1.0 2.0 0.00 0.00 0.00 1012.5
20260901211119 92 202 3.0 6.0 0.00 0.00 0.00 1012.4
20260901210719 92 180 2.0 4.0 0.00 0.00 0.00 1012.7
20260901210619 91 202 2.0 5.0 0.00 0.00 0.00 1012.7
20260901210519 91 225 4.0 7.0 0.00 0.00 0.00 1012.5
20260901205819 91 202 5.0 8.0 0.00 0.00 0.00 1012.4
20260901205418 92 202 5.0 6.0 0.00 0.00 0.00 1012.5
20260901205319 92 225 5.0 8.0 0.00 0.00 0.00 1012.6
20260901205219 91 225 1.0 2.0 0.00 0.00 0.00 1012.5
20260901204519 90 270 5.0 8.0 0.00 0.00 0.00 1012.9
20260901204418 90 225 3.0 6.0 0.00 0.00 0.00 1012.9
20260901203719 91 225 3.0 5.0 0.00 0.00 0.00 1012.8
20260901203319 91 225 3.0 4.0 0.00 0.00 0.00 1012.8
20260901202619 89 247 1.0 2.0 0.00 0.00 0.00 1012.9
20260901202519 89 225 1.0 3.0 0.00 0.00 0.00 1012.8
20260901202419 89 135 3.0 4.0 0.00 0.00 0.00 1012.8
20260901202319 89 247 4.0 5.0 0.00 0.00 0.00 1012.9
20260901202218 89 180 1.0 1.0 0.00 0.00 0.00 1012.9
20260901202119 89 135 2.0 4.0 0.00 0.00 0.00 1012.9
20260901201718 89 225 6.0 10.0 0.00 0.00 0.00 1013.0
20260901201019 89 225 3.0 6.0 0.00 0.00 0.00 1013.3
20260901200919 89 225 3.0 8.0 0.00 0.00 0.00 1013.2
20260901195618 88 292 3.0 4.0 0.00 0.00 0.00 1013.4
20260901195218 87 112 2.0 3.0 0.00 0.00 0.00 1013.6
20260901195118 87 157 0.0 1.0 0.00 0.00 0.00 1013.4
20260901195019 87 315 1.0 1.0 0.00 0.00 0.00 1013.5
20260901194619 86 225 1.0 2.0 0.00 0.00 0.00 1013.4
20260901194518 86 315 1.0 2.0 0.00 0.00 0.00 1013.5
20260901194419 86 315 1.0 4.0 0.00 0.00 0.00 1013.4
20260901194319 86 202 3.0 5.0 0.00 0.00 0.00 1013.4
20260901193919 86 202 2.0 6.0 0.00 0.00 0.00 1013.6
20260901192918 87 337 2.0 4.0 0.00 0.00 0.00 1013.5
20260901192819 87 337 1.0 3.0 0.00 0.00 0.00 1013.6
20260901192719 87 225 1.0 2.0 0.00 0.00 0.00 1013.7
20260901192318 87 247 1.0 2.0 0.00 0.00 0.00 1013.8
20260901191918 87 292 1.0 1.0 0.00 0.00 0.00 1013.6
20260901191519 86 135 2.0 3.0 0.00 0.00 0.00 1013.8
20260901191119 87 247 1.0 3.0 0.00 0.00 0.00 1013.8
20260901190719 87 225 1.0 2.0 0.00 0.00 0.00 1013.7
20260901190619 87 22 1.0 2.0 0.00 0.00 0.00 1013.9
20260901185019 84 315 1.0 2.0 0.00 0.00 0.00 1013.9
20260901184618 83 225 2.0 3.0 0.00 0.00 0.00 1014.1
20260901184219 82 292 1.0 2.0 0.00 0.00 0.00 1013.9
20260901182919 82 315 2.0 2.0 0.00 0.00 0.00 1014.3
20260901182818 82 45 2.0 3.0 0.00 0.00 0.00 1014.3
20260901182718 82 22 2.0 3.0 0.00 0.00 0.00 1014.3
20260901181418 82 157 0.0 1.0 0.00 0.00 0.00 1014.5
20260901181319 82 180 1.0 2.0 0.00 0.00 0.00 1014.4
20260901180919 83 67 1.0 2.0 0.00 0.00 0.00 1014.4
20260901180819 83 112 1.0 2.0 0.00 0.00 0.00 1014.4
20260901180118 82 135 1.0 3.0 0.00 0.00 0.00 1014.3
20260901175419 83 67 1.0 2.0 0.00 0.00 0.00 1014.2
20260901174719 83 135 1.0 1.0 0.00 0.00 0.00 1014.2
20260901174618 82 67 1.0 2.0 0.00 0.00 0.00 1014.6
20260901174218 80 135 1.0 2.0 0.00 0.00 0.00 1014.5
20260901174119 80 135 1.0 2.0 0.00 0.00 0.00 1014.2
20260901173719 79 157 1.0 2.0 0.00 0.00 0.00 1014.1
20260901173619 80 225 2.0 3.0 0.00 0.00 0.00 1014.4
20260901173519 80 270 3.0 4.0 0.00 0.00 0.00 1014.3
20260901173419 79 315 0.0 1.0 0.00 0.00 0.00 1014.2
20260901173019 79 202 0.0 0.0 0.00 0.00 0.00 1014.4
20260901172918 79 202 0.0 0.0 0.00 0.00 0.00 1014.6
20260901172519 77 67 1.0 2.0 0.00 0.00 0.00 1014.4
20260901172419 77 180 1.0 2.0 0.00 0.00 0.00 1014.2
20260901172318 78 225 1.0 2.0 0.00 0.00 0.00 1014.2
20260901171618 78 157 0.0 1.0 0.00 0.00 0.00 1014.3
20260901165718 78 225 1.0 2.0 0.00 0.00 0.00 1014.6
20260901165618 78 315 2.0 3.0 0.00 0.00 0.00 1014.2
20260901165519 78 292 3.0 4.0 0.00 0.00 0.00 1014.3
20260901164519 79 337 1.0 1.0 0.00 0.00 0.00 1014.5
20260901164419 79 90 1.0 1.0 0.00 0.00 0.00 1014.2
20260901163419 75 270 1.0 2.0 0.00 0.00 0.00 1014.4
20260901163019 75 247 1.0 3.0 0.00 0.00 0.00 1014.4
20260901162619 75 157 1.0 2.0 0.00 0.00 0.00 1014.4
20260901162519 75 157 1.0 2.0 0.00 0.00 0.00 1014.5
20260901162418 75 225 0.0 0.0 0.00 0.00 0.00 1014.5
20260901162019 75 90 1.0 2.0 0.00 0.00 0.00 1014.3
20260901161918 75 0 1.0 2.0 0.00 0.00 0.00 1014.4
20260901161519 77 337 1.0 2.0 0.00 0.00 0.00 1014.4
20260901160818 75 112 0.0 0.0 0.00 0.00 0.00 1014.4
20260901160418 73 112 0.0 0.0 0.00 0.00 0.00 1014.4
20260901155719 70 292 1.0 2.0 0.00 0.00 0.00 1014.3
20260901155619 70 202 1.0 2.0 0.00 0.00 0.00 1014.2
20260901155219 70 0 1.0 1.0 0.00 0.00 0.00 1014.3
20260901155118 70 0 1.0 2.0 0.00 0.00 0.00 1014.3
20260901154418 72 45 1.0 2.0 0.00 0.00 0.00 1014.4
20260901154318 73 202 0.0 1.0 0.00 0.00 0.00 1014.2
20260901153319 71 270 0.0 0.0 0.00 0.00 0.00 1014.3
20260901152919 69 0 0.0 1.0 0.00 0.00 0.00 1014.1
20260901152519 68 135 0.0 0.0 0.00 0.00 0.00 1014.1
20260901152418 68 202 1.0 2.0 0.00 0.00 0.00 1014.0
20260901152019 68 157 1.0 1.0 0.00 0.00 0.00 1013.9
20260901151619 69 180 1.0 2.0 0.00 0.00 0.00 1014.0
20260901151518 69 157 1.0 1.0 0.00 0.00 0.00 1014.0
20260901151119 71 22 0.0 0.0 0.00 0.00 0.00 1014.1
20260901151019 71 225 0.0 1.0 0.00 0.00 0.00 1014.0
20260901150918 71 22 1.0 1.0 0.00 0.00 0.00 1014.0
20260901150819 72 67 0.0 2.0 0.00 0.00 0.00 1014.1
20260901150120 69 22 0.0 0.0 0.00 0.00 0.00 1014.0
20260901145419 67 112 0.0 0.0 0.00 0.00 0.00 1014.2
20260901145319 67 112 0.0 1.0 0.00 0.00 0.00 1013.6
20260901145219 67 112 1.0 1.0 0.00 0.00 0.00 1013.8
20260901144518 68 45 0.0 0.0 0.00 0.00 0.00 1013.9
20260901144119 69 135 0.0 0.0 0.00 0.00 0.00 1014.1
20260901144019 70 135 0.0 0.0 0.00 0.00 0.00 1014.1
20260901143619 69 247 0.0 0.0 0.00 0.00 0.00 1013.9
20260901142618 65 0 0.0 0.0 0.00 0.00 0.00 1014.0
20260901142519 65 0 0.0 0.0 0.00 0.00 0.00 1013.5
20260901142418 65 0 0.0 0.0 0.00 0.00 0.00 1013.8
20260901142019 63 337 0.0 0.0 0.00 0.00 0.00 1013.8
20260901141919 63 337 0.0 0.0 0.00 0.00 0.00 1013.7
20260901141219 59 0 0.0 0.0 0.00 0.00 0.00 1013.7
20260901140819 58 337 0.0 0.0 0.00 0.00 0.00 1013.4
20260901140719 58 337 0.0 0.0 0.00 0.00 0.00 1013.3
20260901140018 58 22 0.0 0.0 0.00 0.00 0.00 1013.5
20260901135918 58 22 0.0 0.0 0.00 0.00 0.00 1013.5
20260901135819 58 22 0.0 0.0 0.00 0.00 0.00 1013.5
20260901135419 56 0 0.0 0.0 0.00 0.00 0.00 1013.6
20260901135319 56 292 0.0 0.0 0.00 0.00 0.00 1013.4
20260901135219 56 292 0.0 0.0 0.00 0.00 0.00 1013.4
20260901134819 55 292 0.0 0.0 0.00 0.00 0.00 1013.4
20260901134719 55 292 0.0 0.0 0.00 0.00 0.00 1013.2
20260901134019 55 292 0.0 0.0 0.00 0.00 0.00 1013.2
20260901133318 54 292 0.0 0.0 0.00 0.00 0.00 1013.1
20260901133219 54 292 0.0 0.0 0.00 0.00 0.00 1013.2
20260901132519 55 22 0.0 0.0 0.00 0.00 0.00 1013.1
20260901132419 55 22 0.0 0.0 0.00 0.00 0.00 1013.0
20260901131719 55 22 0.0 0.0 0.00 0.00 0.00 1013.0
20260901131618 55 22 0.0 0.0 0.00 0.00 0.00 1012.9
20260901131520 55 22 0.0 0.0 0.00 0.00 0.00 1013.2
20260901131418 55 22 0.0 0.0 0.00 0.00 0.00 1013.0
20260901130719 55 22 0.0 0.0 0.00 0.00 0.00 1013.0
20260901124819 55 337 0.0 0.0 0.00 0.00 0.00 1013.0
20260901124118 55 337 0.0 0.0 0.00 0.00 0.00 1012.7
20260901124019 55 337 0.0 0.0 0.00 0.00 0.00 1013.0
20260901123618 55 337 0.0 0.0 0.00 0.00 0.00 1012.7
20260901122618 56 337 0.0 0.0 0.00 0.00 0.00 1012.7
20260901122219 56 337 0.0 0.0 0.00 0.00 0.00 1012.6
20260901121819 56 337 0.0 0.0 0.00 0.00 0.00 1012.6
20260901121719 56 337 0.0 0.0 0.00 0.00 0.00 1012.6
20260901120718 56 292 0.0 0.0 0.00 0.00 0.00 1012.6
20260901115419 55 0 0.0 0.0 0.00 0.00 0.00 1012.6
20260901115319 55 0 0.0 0.0 0.00 0.00 0.00 1012.5
20260901114019 56 0 0.0 0.0 0.00 0.00 0.00 1012.7
20260901113619 56 0 0.0 0.0 0.00 0.00 0.00 1012.6
20260901113219 56 0 0.0 0.0 0.00 0.00 0.00 1012.6
20260901112519 56 0 0.0 0.0 0.00 0.00 0.00 1012.7
20260901112419 57 0 0.0 0.0 0.00 0.00 0.00 1012.6
20260901112318 57 0 0.0 0.0 0.00 0.00 0.00 1012.8
20260901112219 57 0 0.0 0.0 0.00 0.00 0.00 1012.7
20260901112118 57 0 0.0 0.0 0.00 0.00 0.00 1012.7
20260901112019 57 0 0.0 0.0 0.00 0.00 0.00 1012.8
20260901111019 57 0 0.0 0.0 0.00 0.00 0.00 1012.8
20260901110919 57 0 0.0 0.0 0.00 0.00 0.00 1012.8
20260901110819 57 0 0.0 0.0 0.00 0.00 0.00 1012.8
20260901110419 57 0 0.0 0.0 0.00 0.00 0.00 1012.8
20260901110319 57 0 0.0 0.0 0.00 0.00 0.00 1012.8
20260901105619 57 0 0.0 0.0 0.00 0.00 0.00 1012.7
20260901104919 57 0 0.0 0.0 0.00 0.00 0.00 1012.7
20260901104818 57 0 0.0 0.0 0.00 0.00 0.00 1012.8
20260901104718 57 0 0.0 0.0 0.00 0.00 0.00 1012.7
20260901104319 57 337 0.0 0.0 0.00 0.00 0.00 1012.9
20260901103319 58 337 0.0 0.0 0.00 0.00 0.00 1012.9
20260901101419 59 337 0.0 0.0 0.00 0.00 0.00 1012.8
20260901101018 59 315 0.0 0.0 0.00 0.00 0.00 1012.9
20260901100919 59 315 0.0 0.0 0.00 0.00 0.00 1012.8
20260901100819 59 315 0.0 0.0 0.00 0.00 0.00 1012.9
20260901100418 59 247 0.0 0.0 0.00 0.00 0.00 1012.8
20260901100318 59 247 0.0 0.0 0.00 0.00 0.00 1012.8
20260901095919 59 337 0.0 0.0 0.00 0.00 0.00 1012.9
20260901095219 59 337 0.0 0.0 0.00 0.00 0.00 1012.9
20260901094819 60 337 0.0 0.0 0.00 0.00 0.00 1012.8
20260901094718 60 337 0.0 0.0 0.00 0.00 0.00 1012.9
20260901094619 60 337 0.0 0.0 0.00 0.00 0.00 1013.0
20260901093318 61 225 0.0 0.0 0.00 0.00 0.00 1012.7
20260901092918 61 225 0.0 0.0 0.00 0.00 0.00 1012.8
20260901092819 61 225 0.0 0.0 0.00 0.00 0.00 1012.8
20260901092419 61 292 0.0 0.0 0.00 0.00 0.00 1012.7
20260901092018 62 202 0.0 1.0 0.00 0.00 0.00 1012.7
20260901091918 62 202 0.0 0.0 0.00 0.00 0.00 1012.8
20260901091519 62 225 1.0 2.0 0.00 0.00 0.00 1012.8
20260901091419 62 225 1.0 2.0 0.00 0.00 0.00 1012.9
20260901091318 62 225 1.0 2.0 0.00 0.00 0.00 1012.9
20260901090920 62 202 1.0 2.0 0.00 0.00 0.00 1012.7
20260901090819 62 202 1.0 2.0 0.00 0.00 0.00 1012.7
20260901085819 62 225 1.0 2.0 0.00 0.00 0.00 1012.8
20260901085718 62 225 1.0 1.0 0.00 0.00 0.00 1012.8
20260901085019 62 225 1.0 1.0 0.00 0.00 0.00 1012.6
20260901084918 62 225 1.0 2.0 0.00 0.00 0.00 1012.6
20260901084819 62 225 1.0 2.0 0.00 0.00 0.00 1012.6
20260901084719 62 202 1.0 2.0 0.00 0.00 0.00 1012.7
20260901084319 62 225 0.0 1.0 0.00 0.00 0.00 1013.0
20260901084219 62 292 0.0 1.0 0.00 0.00 0.00 1012.8
20260901083819 62 292 0.0 0.0 0.00 0.00 0.00 1012.9
20260901083419 63 225 0.0 0.0 0.00 0.00 0.00 1012.9
20260901083018 63 202 0.0 1.0 0.00 0.00 0.00 1012.8
20260901082618 63 225 1.0 2.0 0.00 0.00 0.00 1012.7
20260901082218 62 180 0.0 2.0 0.00 0.00 0.00 1012.7
20260901075718 64 202 1.0 1.0 0.00 0.00 0.00 1012.9
20260901075618 63 202 1.0 2.0 0.00 0.00 0.00 1012.9
20260901075519 63 202 0.0 1.0 0.00 0.00 0.00 1012.9
20260901074519 64 180 1.0 1.0 0.00 0.00 0.00 1012.9
20260901074419 64 202 1.0 2.0 0.00 0.00 0.00 1012.8
20260901074318 64 225 1.0 1.0 0.00 0.00 0.00 1012.8
20260901074218 64 225 0.0 0.0 0.00 0.00 0.00 1012.7
20260901074119 64 202 0.0 1.0 0.00 0.00 0.00 1013.1
20260901074019 64 202 0.0 1.0 0.00 0.00 0.00 1012.9
20260901073619 64 180 0.0 1.0 0.00 0.00 0.00 1013.1
20260901073518 65 180 1.0 2.0 0.00 0.00 0.00 1013.1
20260901073419 65 270 1.0 2.0 0.00 0.00 0.00 1013.1
20260901073019 65 225 1.0 2.0 0.00 0.00 0.00 1013.2
20260901072619 65 202 1.0 1.0 0.00 0.00 0.00 1013.0
20260901071019 64 225 0.0 0.0 0.00 0.00 0.00 1013.0
20260901070919 64 202 0.0 0.0 0.00 0.00 0.00 1013.1
20260901065618 63 202 0.0 0.0 0.00 0.00 0.00 1012.8
20260901065518 63 225 0.0 0.0 0.00 0.00 0.00 1012.8
20260901065419 63 202 0.0 0.0 0.00 0.00 0.00 1012.9
20260901065319 63 180 0.0 0.0 0.00 0.00 0.00 1012.8
20260901064319 63 292 0.0 0.0 0.00 0.00 0.00 1012.6
20260901064219 63 292 0.0 0.0 0.00 0.00 0.00 1012.6
20260901062619 65 157 0.0 0.0 0.00 0.00 0.00 1012.7
20260901062218 65 157 0.0 0.0 0.00 0.00 0.00 1012.7
20260901061819 65 157 0.0 0.0 0.00 0.00 0.00 1012.5
20260901061719 66 247 0.0 0.0 0.00 0.00 0.00 1012.8
20260901061618 66 157 0.0 0.0 0.00 0.00 0.00 1012.8
20260901061219 66 225 1.0 2.0 0.00 0.00 0.00 1012.8
20260901061119 66 270 1.0 1.0 0.00 0.00 0.00 1012.7
20260901060419 66 225 1.0 3.0 0.00 0.00 0.00 1012.6
20260901060319 66 180 1.0 2.0 0.00 0.00 0.00 1012.8
20260901060219 66 270 1.0 2.0 0.00 0.00 0.00 1012.7
20260901060118 66 225 1.0 2.0 0.00 0.00 0.00 1012.5
20260901055418 67 180 0.0 1.0 0.00 0.00 0.00 1012.8
20260901055019 67 247 0.0 2.0 0.00 0.00 0.00 1012.6
20260901054919 67 180 0.0 0.0 0.00 0.00 0.00 1012.7
20260901054818 67 180 0.0 1.0 0.00 0.00 0.00 1012.5
20260901054418 67 225 1.0 2.0 0.00 0.00 0.00 1012.7
20260901054318 67 180 0.0 1.0 0.00 0.00 0.00 1012.7
20260901054219 67 202 0.0 0.0 0.00 0.00 0.00 1012.5
20260901054119 67 225 0.0 0.0 0.00 0.00 0.00 1012.7
20260901053119 68 202 2.0 3.0 0.00 0.00 0.00 1012.5
20260901053019 68 202 1.0 2.0 0.00 0.00 0.00 1012.6
20260901052919 68 225 1.0 2.0 0.00 0.00 0.00 1012.6
20260901052818 68 202 2.0 3.0 0.00 0.00 0.00 1012.6
20260901052418 68 157 2.0 4.0 0.00 0.00 0.00 1012.6
20260901051719 68 202 3.0 4.0 0.00 0.00 0.00 1012.4
20260901051619 68 202 1.0 2.0 0.00 0.00 0.00 1012.5
20260901050919 68 225 0.0 3.0 0.00 0.00 0.00 1012.3
20260901050518 68 202 0.0 1.0 0.00 0.00 0.00 1012.3
20260901050118 68 225 0.0 0.0 0.00 0.00 0.00 1012.2
20260901050019 68 202 0.0 0.0 0.00 0.00 0.00 1012.2
20260901044719 69 225 0.0 0.0 0.00 0.00 0.00 1012.3
20260901043419 69 247 1.0 2.0 0.00 0.00 0.00 1012.0
20260901043319 69 225 2.0 2.0 0.00 0.00 0.00 1012.0
20260901042918 69 157 0.0 1.0 0.00 0.00 0.00 1011.9
20260901042518 69 180 1.0 1.0 0.00 0.00 0.00 1011.9